Location: Wien
(48.2082°N, 16.3738°E)
Time: 05:31:48
(UTC+01:00)

Tiros 1 - All Passes

Search period start: 23 February 2024 00:00
Search period end: 04 March 2024 00:00
Orbit: 625 x 658 km, 48.4° (Epoch: 22 February)

Date Brightness Start Highest point End Pass type
(mag) Time Alt. Az. Time Alt. Az. Time Alt. Az.
23 Feb - 01:21:54 10° W 01:26:42 87° SSW 01:31:28 10° E night (unlit)
23 Feb - 03:04:06 10° W 03:08:36 42° SSW 03:13:03 10° SE visible
23 Feb - 04:48:04 10° WSW 04:49:47 12° SW 04:51:29 10° SSW visible
23 Feb - 20:41:55 10° S 20:45:21 20° SE 20:48:49 10° E night (unlit)
23 Feb - 22:22:07 10° WSW 22:26:50 59° SSE 22:31:32 10° E night (unlit)
24 Feb - 00:04:05 10° W 00:08:53 87° N 00:13:40 10° E night (unlit)
24 Feb - 01:46:15 10° W 01:51:00 69° SSW 01:55:42 10° ESE night (unlit)
24 Feb - 03:28:44 10° W 03:32:36 25° SW 03:36:27 10° SSE night (unlit)
24 Feb - 21:04:58 10° SSW 21:09:18 35° SSE 21:13:38 10° E night (unlit)
24 Feb - 22:46:17 10° WSW 22:51:05 81° SSE 22:55:52 10° E night (unlit)
25 Feb - 00:28:26 10° W 00:33:15 89° S 00:38:01 10° E night (unlit)
25 Feb - 02:10:37 10° W 02:15:12 46° SSW 02:19:43 10° SE night (unlit)
25 Feb - 03:54:07 10° WSW 03:56:27 14° SW 03:58:45 10° SSW night (unlit)
25 Feb - 19:48:49 10° S 19:51:59 18° SE 19:55:11 10° E visible
25 Feb - 21:28:44 10° SW 21:33:24 55° SSE 21:38:05 10° E night (unlit)
25 Feb - 23:10:37 10° W 23:15:26 88° N 23:20:14 10° E night (unlit)
26 Feb - 00:52:47 10° W 00:57:34 73° SSW 01:02:18 10° ESE night (unlit)
26 Feb - 02:35:10 10° W 02:39:14 28° SW 02:43:14 10° SSE night (unlit)
26 Feb - 20:11:41 10° SSW 20:15:54 31° SSE 20:20:07 10° E visible
26 Feb - 21:52:51 10° WSW 21:57:38 78° SSE 22:02:25 10° E night (unlit)
26 Feb - 23:34:58 10° W 23:39:47 89° N 23:44:34 10° E night (unlit)
27 Feb - 01:17:08 10° W 01:21:45 50° SSW 01:26:21 10° SE night (unlit)
27 Feb - 03:00:19 10° W 03:03:05 15° SW 03:05:50 10° S night (unlit)
27 Feb - 18:55:46 10° S 18:58:37 16° SE 19:01:29 10° E visible
27 Feb - 20:35:20 10° SW 20:39:57 51° SSE 20:44:36 10° E visible
27 Feb - 22:17:08 10° W 22:21:57 89° N 22:26:45 10° E night (unlit)
27 Feb - 23:59:19 10° W 00:04:06 77° SSW 00:08:52 10° ESE night (unlit)
28 Feb - 01:41:38 10° W 01:45:50 31° SW 01:49:59 10° SSE night (unlit)
28 Feb - 19:18:24 10° SSW 19:22:29 29° SE 19:26:35 10° E visible
28 Feb - 20:59:24 10° WSW 21:04:10 74° SSE 21:08:57 10° E visible
28 Feb - 22:41:30 10° W 22:46:18 88° N 22:51:06 10° E night (unlit)
29 Feb - 00:23:39 10° W 00:28:19 54° SSW 00:32:58 10° SE night (unlit)
29 Feb - 02:06:35 10° W 02:09:43 17° SW 02:12:49 10° S night (unlit)
29 Feb - 18:02:47 10° SSE 18:05:15 14° SE 18:07:42 10° ESE visible
29 Feb - 19:41:57 10° SW 19:46:31 47° SSE 19:51:06 10° E visible
29 Feb - 21:23:40 10° W 21:28:28 90° S 21:33:17 10° E visible
29 Feb - 23:05:50 10° W 23:10:38 80° SSW 23:15:24 10° ESE night (unlit)
01 Mar - 00:48:05 10° W 00:52:24 34° SSW 00:56:40 10° SSE night (unlit)
01 Mar - 18:25:09 10° SSW 18:29:04 26° SE 18:33:01 10° E visible
01 Mar - 20:05:56 10° WSW 20:10:41 70° SSE 20:15:27 10° E visible
01 Mar - 21:48:00 10° W 21:52:49 87° N 21:57:37 10° E visible
01 Mar - 23:30:09 10° W 23:34:52 59° SSW 23:39:33 10° ESE night (unlit)
02 Mar - 01:12:55 10° W 01:16:20 20° SW 01:19:42 10° S night (unlit)
02 Mar - 17:09:58 10° SSE 17:11:52 12° SE 17:13:47 10° ESE daylight
02 Mar - 18:48:34 10° SW 18:53:04 43° SSE 18:57:36 10° E visible
02 Mar - 20:30:11 10° W 20:34:58 88° S 20:39:47 10° E visible
02 Mar - 22:12:20 10° W 22:17:08 83° SSW 22:21:56 10° ESE visible
02 Mar - 23:54:33 10° W 23:58:58 37° SSW 00:03:21 10° SE night (unlit)
03 Mar - 17:31:55 10° SSW 17:35:39 23° SE 17:39:26 10° E daylight
03 Mar - 19:12:29 10° WSW 19:17:13 66° SSE 19:21:58 10° E visible
03 Mar - 20:54:30 10° W 20:59:18 87° N 21:04:07 10° E visible
03 Mar - 22:36:39 10° W 22:41:24 63° SSW 22:46:07 10° ESE visible
